(236) Honoria
ephemeris date magn radius delta ra dec elong phase
Today14 Aug 202611.52.289 AU1.386 AU23h35m+03°12'144.8°14.8°
Opposition13 Sep 202610.72.274 AU1.269 AU23h19m-00°21'176.3°1.6°
(236) Honoria - 2026-08-14
astro.vanbuitenen.nl


 
-1 year
-1 month
-1 day
Now
+1 day
+1 month
+1 year

The interactive orbit chart above shows the body's path through the solar system and its position at the given date. Green and blue lines are shown perpendicular to the ecliptic plane: Green if the path is above the ecliptic plane, blue if it is below. (Left-click and drag to rotate the view; Right-click and drag to move the view; Use scroll wheel to zoom in our out.)

The orbital elements of Honoria are:

            e (Eccentricity)                : 0.1895764
            a (Semimajor axis)              : 2.7996132
            i (Inclination)                 : 7.69766
            Ω (Longitude of ascending node) : 185.78811
            ω (Argument of perihelion)      : 174.27485
            M (Mean anomaly)                : 333.18926
            Epoch                           : 2026 Jun 09

            L (Longitude of perihelion)     : 180.11421
            B (Latitude of perihelion)      : 0.76561
            P (Orbital period in years)     : 4.68            
        

The light curve chart below shows the estimated development of the minor planet's magnitude.


The all-sky chart below shows the path of the minor planet over the same period as the light curve. The current position is marked yellow.





The following chart shows the path of the minor planet in the next few days. The field of view is optimized for (~10x50) binoculars and finderscopes.




Ephemerides:
Date       Time       RA (2000)    DEC (2000)    delta   radius  elong  phase   PA    magn
2026-08-14 00:00 UT   23 35 47.8   +03 12 42     1.386    2.289  144.8   14.8   239   11.5 
2026-08-14 03:21 UT   23 35 45.7   +03 12 08     1.385    2.289  144.9   14.7   239   11.5 
2026-08-15 00:00 UT   23 35 31.9   +03 08 34     1.379    2.289  145.8   14.4   239   11.5 
2026-08-16 00:00 UT   23 35 14.6   +03 04 12     1.372    2.288  146.9   14.0   238   11.5 
2026-08-17 00:00 UT   23 34 55.8   +02 59 37     1.365    2.287  147.9   13.6   238   11.4 
2026-08-18 00:00 UT   23 34 35.7   +02 54 47     1.359    2.287  149.0   13.2   238   11.4 
2026-08-19 00:00 UT   23 34 14.3   +02 49 44     1.352    2.286  150.1   12.8   238   11.4 
2026-08-20 00:00 UT   23 33 51.5   +02 44 27     1.346    2.285  151.1   12.3   237   11.4 
2026-08-21 00:00 UT   23 33 27.4   +02 38 57     1.341    2.285  152.2   11.9   237   11.3 
2026-08-22 00:00 UT   23 33 02.1   +02 33 14     1.335    2.284  153.3   11.5   237   11.3 
2026-08-23 00:00 UT   23 32 35.6   +02 27 18     1.330    2.284  154.4   11.0   236   11.3 
2026-08-24 00:00 UT   23 32 07.9   +02 21 09     1.324    2.283  155.5   10.6   236   11.3 
2026-08-25 00:00 UT   23 31 39.0   +02 14 48     1.319    2.283  156.6   10.1   235   11.2 
2026-08-26 00:00 UT   23 31 09.0   +02 08 14     1.315    2.282  157.7    9.7   235   11.2 
2026-08-27 00:00 UT   23 30 38.0   +02 01 29     1.310    2.282  158.8    9.2   234   11.2 
2026-08-28 00:00 UT   23 30 06.0   +01 54 32     1.306    2.281  159.9    8.7   234   11.2 
2026-08-29 00:00 UT   23 29 33.0   +01 47 24     1.302    2.281  161.0    8.3   233   11.1 
2026-08-30 00:00 UT   23 28 59.0   +01 40 05     1.298    2.280  162.2    7.8   232   11.1 
2026-08-31 00:00 UT   23 28 24.2   +01 32 36     1.294    2.280  163.3    7.3   231   11.1 
2026-09-01 00:00 UT   23 27 48.6   +01 24 56     1.291    2.279  164.4    6.8   230   11.0 
2026-09-02 00:00 UT   23 27 12.2   +01 17 07     1.288    2.279  165.5    6.4   229   11.0 
2026-09-03 00:00 UT   23 26 35.1   +01 09 09     1.285    2.278  166.7    5.9   228   11.0 
2026-09-04 00:00 UT   23 25 57.3   +01 01 01     1.282    2.278  167.8    5.4   226   11.0 
2026-09-05 00:00 UT   23 25 18.9   +00 52 46     1.280    2.277  168.9    4.9   225   10.9 
2026-09-06 00:00 UT   23 24 40.0   +00 44 22     1.277    2.277  170.0    4.4   222   10.9 
2026-09-07 00:00 UT   23 24 00.6   +00 35 51     1.275    2.276  171.1    3.9   220   10.9 
2026-09-08 00:00 UT   23 23 20.8   +00 27 14     1.274    2.276  172.1    3.5   216   10.8 
2026-09-09 00:00 UT   23 22 40.6   +00 18 30     1.272    2.276  173.2    3.0   211   10.8 
2026-09-10 00:00 UT   23 22 00.2   +00 09 41     1.271    2.275  174.1    2.6   205   10.8 
2026-09-11 00:00 UT   23 21 19.6   +00 00 46     1.270    2.275  175.0    2.2   197   10.7 
2026-09-12 00:00 UT   23 20 38.8   +00 08 12     1.270    2.275  175.7    1.9   185   10.7 
2026-09-13 00:00 UT   23 19 58.0   +00 17 14     1.269    2.274  176.2    1.7   169   10.7 


    Terminology:
            
    delta:  distance between minor planet and earth in AU
    radius: distance between minor planet and sun in AU
    magn:   magnitude (brightness) estimate    
    ra:     right ascension in hours (24h = 360deg)
    dec:    declination in degrees
    elong:  elongation in degrees (angle sun-earth-minor planet)    
    phase:  phase angle in degrees (angle sun-minor planet-earth)        
    AU:     Astronomical Unit (mean distance between earth and sun: 149597870.7 km
    

Orbital elements provided by the MPC (Minor Planet Center).
Calculations by a modified version of AAPlus, a C# implementation of the AA+ project by PJ Naughter from the algorithms presented in the book "Astronomical Algorithms" by Jean Meeus.
NGC2000 dso catalog and star labels from VizieR as provided by the Strasbourg astronomical Data Center.
Tycho2 catalog from the ESO archive.